Weather History for Ankeny, IA

Change the Weather History Date:

Thursday, April 3, 2014

  Actual Average (KDSM) Record (KDSM)
Temperature  
Mean Temperature 42 °F 47 °F  
Max Temperature 46 °F 57 °F 87 °F (2011)
Min Temperature 37 °F 36 °F 9 °F (1975)
Degree Days  
Heating Degree Days 24 18  
Month to date heating degree days 56  
Since 1 July heating degree days 5683  
Cooling Degree Days 0 0  
Month to date cooling degree days 0  
Year to date cooling degree days 1  
Moisture  
Dew Point 41 °F    
Average Humidity 95    
Maximum Humidity 100    
Minimum Humidity 76    
Precipitation  
Precipitation 0.03 in 0.09 in 1.93 in (1945)
Month to date precipitation 0.28  
Year to date precipitation 4.86  
Snow  
Snow 0.00 in 0.10 in 3.90 in (1950)
Month to date snowfall 0.3  
Since 1 July snowfall 33.8  
Snow Depth -    
Sea Level Pressure  
Sea Level Pressure 29.71 in    
Wind  
Wind Speed 11 mph (ENE)    
Max Wind Speed 21 mph    
Max Gust Speed 24 mph    
Visibility 3 miles    
Events Fog , Rain    
T = Trace of Precipitation, MM = Missing Value Source: NWS Daily Summary

Daily Weather History Graph

Daily Weather History Graph

Search for Another Location

Airport:

Trip Planner

Search our weather history database for the weather conditions in past years. The results will help you decide how hot, cold, wet, or windy it might be!

Date:

Astronomy

Apr. 03, 2014 Rise Set
Actual Time 6:53 AM CDT 7:41 PM CDT
Civil Twilight 6:25 AM CDT 8:10 PM CDT
Nautical Twilight 5:52 AM CDT 8:43 PM CDT
Astronomical Twilight 5:17 AM CDT 9:18 PM CDT
Moon 9:20 AM CDT (4/3) No Moon Set
Length of Visible Light 13h 44m
Length of Day
12h 48m
Waxing Crescent, 17% of the Moon is Illuminated
Apr 3
Waxing Crescent
Apr 7
First Quarter
Apr 15
Full
Apr 22
Last Quarter
Apr 29
New

Hourly Weather History & Observations

Time (CDT) Temp. Windchill Dew Point Humidity Pressure Visibility Wind Dir Wind Speed Gust Speed Precip Events Conditions
12:15 AM 44.6 °F 38.1 °F 37.4 °F 76% 29.86 in 10.0 mi East 13.8 mph 20.7 mph N/A   Overcast
12:35 AM 44.6 °F 38.1 °F 37.4 °F 76% 29.85 in 8.0 mi East 13.8 mph 20.7 mph N/A   Overcast
12:55 AM 44.6 °F 36.4 °F 37.4 °F 76% 29.83 in 8.0 mi ESE 20.7 mph - N/A   Overcast
1:15 AM 42.8 °F 35.1 °F 39.2 °F 87% 29.81 in 6.0 mi East 16.1 mph 21.9 mph N/A   Haze
1:35 AM 42.8 °F 35.8 °F 39.2 °F 87% 29.81 in 6.0 mi East 13.8 mph 20.7 mph N/A   Haze
1:55 AM 42.8 °F 35.8 °F 39.2 °F 87% 29.81 in 5.0 mi ESE 13.8 mph 24.2 mph N/A   Haze
2:15 AM 41.0 °F 34.3 °F 39.2 °F 93% 29.79 in 2.0 mi East 11.5 mph - N/A   Overcast
2:35 AM 41.0 °F 33.5 °F 39.2 °F 93% 29.78 in 1.8 mi East 13.8 mph - N/A   Overcast
2:55 AM 41.0 °F 34.7 °F 39.2 °F 93% 29.78 in 1.8 mi ENE 10.4 mph - N/A Rain Light Rain
3:15 AM 39.2 °F 33.0 °F 39.2 °F 100% 29.79 in 2.0 mi East 9.2 mph 16.1 mph N/A   Overcast
3:35 AM 39.2 °F 32.0 °F 39.2 °F 100% 29.77 in 3.0 mi East 11.5 mph 17.3 mph N/A   Overcast
3:55 AM 39.2 °F 33.0 °F 37.4 °F 93% 29.77 in 5.0 mi ENE 9.2 mph 18.4 mph N/A   Overcast
4:15 AM 39.2 °F 32.5 °F 37.4 °F 93% 29.78 in 6.0 mi East 10.4 mph 17.3 mph N/A   Overcast
4:35 AM 39.2 °F 32.5 °F 37.4 °F 93% 29.78 in 7.0 mi East 10.4 mph - N/A   Overcast
4:55 AM 39.2 °F 34.2 °F 37.4 °F 93% 29.78 in 7.0 mi East 6.9 mph 18.4 mph N/A   Overcast
5:15 AM 39.2 °F 32.5 °F 37.4 °F 93% 29.77 in 6.0 mi East 10.4 mph - N/A   Overcast
5:35 AM 39.2 °F 33.6 °F 37.4 °F 93% 29.76 in 5.0 mi ENE 8.1 mph 16.1 mph N/A   Overcast
5:55 AM 39.2 °F 30.5 °F 37.4 °F 93% 29.73 in 4.0 mi East 16.1 mph - N/A   Overcast
6:15 AM 37.4 °F 31.4 °F 37.4 °F 100% 29.74 in 4.0 mi ENE 8.1 mph 17.3 mph N/A   Overcast
6:35 AM 37.4 °F 30.3 °F 37.4 °F 100% 29.75 in 4.0 mi ENE 10.4 mph 16.1 mph N/A   Overcast
7:15 AM 37.4 °F 30.8 °F 35.6 °F 93% 29.76 in 5.0 mi NE 9.2 mph - N/A   Overcast
7:35 AM 37.4 °F 31.4 °F 35.6 °F 93% 29.78 in 4.0 mi NE 8.1 mph 13.8 mph N/A   Overcast
7:55 AM 37.4 °F 29.3 °F 35.6 °F 93% 29.76 in 5.0 mi NE 12.7 mph - N/A   Overcast
8:15 AM 37.4 °F 30.3 °F 35.6 °F 93% 29.77 in 5.0 mi NE 10.4 mph - N/A   Overcast
8:35 AM 39.2 °F 30.8 °F 37.4 °F 93% 29.75 in 4.0 mi ENE 15.0 mph - N/A   Overcast
8:55 AM 39.2 °F 33.6 °F 37.4 °F 93% 29.76 in 3.0 mi NE 8.1 mph 15.0 mph N/A   Overcast
9:15 AM 39.2 °F 32.5 °F 37.4 °F 93% 29.75 in 3.0 mi ENE 10.4 mph - N/A   Overcast
9:35 AM 39.2 °F 32.0 °F 37.4 °F 93% 29.74 in 2.5 mi ENE 11.5 mph - N/A   Overcast
9:55 AM 39.2 °F 33.0 °F 37.4 °F 93% 29.75 in 1.5 mi East 9.2 mph 17.3 mph N/A   Overcast
10:15 AM 39.2 °F 33.6 °F 39.2 °F 100% 29.76 in 0.8 mi East 8.1 mph 16.1 mph N/A   Overcast
10:35 AM 39.2 °F 33.0 °F 39.2 °F 100% 29.76 in 0.8 mi East 9.2 mph - N/A   Overcast
10:55 AM 39.2 °F 34.2 °F 39.2 °F 100% 29.76 in 0.8 mi East 6.9 mph 15.0 mph N/A   Overcast
11:15 AM 41.0 °F 34.7 °F 39.2 °F 93% 29.76 in 0.8 mi ESE 10.4 mph - N/A   Overcast
11:35 AM 41.0 °F 36.4 °F 41.0 °F 100% 29.75 in 0.8 mi East 6.9 mph - N/A   Overcast
11:55 AM 42.8 °F 38.6 °F 41.0 °F 93% 29.74 in 1.0 mi East 6.9 mph - N/A   Overcast
12:15 PM 42.8 °F 37.0 °F 42.8 °F 100% 29.73 in 3.0 mi ESE 10.4 mph - N/A   Overcast
12:35 PM 44.6 °F 39.2 °F 42.8 °F 93% 29.72 in 5.0 mi East 10.4 mph - N/A   Overcast
12:55 PM 44.6 °F 38.8 °F 42.8 °F 93% 29.71 in 5.0 mi East 11.5 mph - N/A   Overcast
1:15 PM 44.6 °F 38.8 °F 42.8 °F 93% 29.70 in 2.0 mi East 11.5 mph - N/A   Overcast
1:35 PM 44.6 °F 38.8 °F 42.8 °F 93% 29.69 in 1.0 mi East 11.5 mph - N/A   Overcast
1:55 PM 44.6 °F 39.2 °F 42.8 °F 93% 29.69 in 1.2 mi East 10.4 mph - N/A   Overcast
2:15 PM 44.6 °F 39.7 °F 42.8 °F 93% 29.69 in 1.2 mi East 9.2 mph - N/A   Overcast
2:35 PM 44.6 °F 39.2 °F 42.8 °F 93% 29.68 in 1.0 mi East 10.4 mph - N/A   Overcast
2:55 PM 44.6 °F 39.2 °F 44.6 °F 100% 29.66 in 1.8 mi East 10.4 mph - N/A   Overcast
3:15 PM 44.6 °F 40.2 °F 44.6 °F 100% 29.66 in 1.0 mi East 8.1 mph - N/A   Overcast
3:35 PM 44.6 °F 39.7 °F 44.6 °F 100% 29.67 in - East 9.2 mph - N/A   Overcast
3:55 PM 44.6 °F 39.2 °F 44.6 °F 100% 29.66 in 2.0 mi East 10.4 mph - N/A   Overcast
4:15 PM 44.6 °F 39.7 °F 44.6 °F 100% 29.64 in 2.5 mi East 9.2 mph - N/A   Overcast
4:35 PM 44.6 °F 39.2 °F 44.6 °F 100% 29.64 in 3.0 mi East 10.4 mph - N/A   Overcast
4:55 PM 44.6 °F 39.2 °F 44.6 °F 100% 29.63 in 3.0 mi East 10.4 mph - N/A   Overcast
5:15 PM 46.4 °F 40.7 °F 44.6 °F 93% 29.62 in 2.5 mi East 12.7 mph - N/A   Overcast
5:35 PM 44.6 °F 37.4 °F 44.6 °F 100% 29.62 in 2.5 mi East 16.1 mph 23.0 mph N/A   Overcast
5:55 PM 44.6 °F 38.8 °F 44.6 °F 100% 29.62 in 1.5 mi East 11.5 mph - N/A   Overcast
6:15 PM 44.6 °F 38.8 °F 44.6 °F 100% 29.62 in 0.8 mi East 11.5 mph - N/A   Overcast
6:35 PM 44.6 °F 39.2 °F 44.6 °F 100% 29.62 in 0.5 mi East 10.4 mph - N/A Fog Fog
6:55 PM 44.6 °F 42.2 °F 44.6 °F 100% 29.63 in 0.8 mi ESE 4.6 mph - 0.01 in   Overcast
7:15 PM 44.6 °F - 44.6 °F 100% 29.64 in 0.5 mi Calm Calm - N/A Rain Light Rain
7:35 PM 44.6 °F 43.1 °F 44.6 °F 100% 29.63 in 0.5 mi East 3.5 mph - N/A Rain Light Rain
7:55 PM 44.6 °F 43.1 °F 42.8 °F 93% 29.64 in 1.0 mi East 3.5 mph - 0.01 in   Overcast
8:15 PM 42.8 °F 40.1 °F 42.8 °F 100% 29.63 in 0.8 mi NNE 4.6 mph - N/A   Overcast
8:35 PM 42.8 °F 41.1 °F 42.8 °F 100% 29.63 in 1.0 mi North 3.5 mph - N/A   Overcast
8:55 PM 42.8 °F 41.1 °F 42.8 °F 100% 29.63 in 1.2 mi NE 3.5 mph - 0.01 in   Overcast
9:15 PM 42.8 °F 39.3 °F 42.8 °F 100% 29.62 in 1.0 mi NNE 5.8 mph - N/A   Overcast
9:35 PM 42.8 °F 41.1 °F 42.8 °F 100% 29.64 in 1.2 mi North 3.5 mph - N/A   Overcast
11:15 PM 39.2 °F 32.0 °F 39.2 °F 100% 29.57 in 1.2 mi NNW 11.5 mph - N/A   Overcast
11:35 PM 39.2 °F 31.6 °F 39.2 °F 100% 29.56 in 1.5 mi North 12.7 mph - N/A   Overcast
11:55 PM 39.2 °F 33.0 °F 39.2 °F 100% 29.55 in 1.5 mi North 9.2 mph - N/A   Overcast